timestamp,wind_dir_avg,wind_spd_max_dir,wind_spd_avg,wind_spd_gust,battery_voltage,lat,long
2018-05-21 00:00:00+00:00,228.0,229.0,9.53,10.9,,47.59359,-54.27349
2018-05-21 00:10:00+00:00,223.0,221.0,8.92,10.3,,47.59359,-54.27349
2018-05-21 00:20:00+00:00,215.0,218.0,8.27,9.27,,47.59359,-54.27349
2018-05-21 00:30:00+00:00,221.0,217.0,8.46,9.61,,47.59359,-54.27349
2018-05-21 00:40:00+00:00,214.0,216.0,7.25,8.37,,47.59359,-54.27349
2018-05-21 00:50:00+00:00,216.0,217.0,7.1,8.1,,47.59359,-54.27349
2018-05-21 01:00:00+00:00,217.0,223.0,8.77,9.83,,47.59359,-54.27349
2018-05-21 01:10:00+00:00,225.0,225.0,8.51,9.37,,47.59359,-54.27349
2018-05-21 01:20:00+00:00,220.0,217.0,7.18,8.19,,47.59359,-54.27349
2018-05-21 01:30:00+00:00,218.0,221.0,7.21,8.72,,47.59359,-54.27349
2018-05-21 01:40:00+00:00,224.0,223.0,6.95,7.53,,47.59359,-54.27349
2018-05-21 01:50:00+00:00,218.0,217.0,6.89,8.03,,47.59359,-54.27349
2018-05-21 02:00:00+00:00,221.0,226.0,7.1,8.35,,47.59359,-54.27349
2018-05-21 02:10:00+00:00,217.0,219.0,7.64,8.64,,47.59359,-54.27349
2018-05-21 02:20:00+00:00,216.0,215.0,7.31,8.11,,47.59359,-54.27349
2018-05-21 02:30:00+00:00,221.0,222.0,7.35,8.18,,47.59359,-54.27349
2018-05-21 02:40:00+00:00,224.0,229.0,7.8,8.57,,47.59359,-54.27349
2018-05-21 02:50:00+00:00,232.0,232.0,8.04,8.91,,47.59359,-54.27349
2018-05-21 03:00:00+00:00,232.0,230.0,7.75,8.79,,47.59359,-54.27349
2018-05-21 03:10:00+00:00,234.0,234.0,7.01,8.08,,47.59359,-54.27349
2018-05-21 03:20:00+00:00,234.0,234.0,6.57,7.63,,47.59359,-54.27349
2018-05-21 03:30:00+00:00,233.0,232.0,5.88,6.95,,47.59359,-54.27349
2018-05-21 03:40:00+00:00,236.0,235.0,7.03,7.99,,47.59359,-54.27349
2018-05-21 03:50:00+00:00,237.0,236.0,6.08,6.79,,47.59359,-54.27349
2018-05-21 04:00:00+00:00,235.0,236.0,6.69,7.45,,47.59359,-54.27349
2018-05-21 04:10:00+00:00,239.0,241.0,6.9,8.46,,47.59359,-54.27349
2018-05-21 04:20:00+00:00,245.0,241.0,7.31,7.92,,47.59359,-54.27349
2018-05-21 04:30:00+00:00,246.0,245.0,8.86,9.96,,47.59359,-54.27349
2018-05-21 04:40:00+00:00,250.0,247.0,8.42,9.5,,47.59359,-54.27349
2018-05-21 04:50:00+00:00,255.0,255.0,8.9,10.08,,47.59359,-54.27349
2018-05-21 05:00:00+00:00,270.0,267.0,7.77,8.69,,47.59359,-54.27349
2018-05-21 05:10:00+00:00,269.0,276.0,7.57,8.88,,47.59359,-54.27349
2018-05-21 05:20:00+00:00,276.0,282.0,7.31,9.57,,47.59359,-54.27349
2018-05-21 05:30:00+00:00,280.0,288.0,6.69,7.7,,47.59359,-54.27349
2018-05-21 05:40:00+00:00,280.0,279.0,7.12,7.74,,47.59359,-54.27349
2018-05-21 05:50:00+00:00,282.0,285.0,8.84,9.39,,47.59359,-54.27349
2018-05-21 06:00:00+00:00,284.0,287.0,8.65,9.65,,47.59359,-54.27349
2018-05-21 06:10:00+00:00,286.0,302.0,8.22,9.27,,47.59359,-54.27349
2018-05-21 06:20:00+00:00,295.0,291.0,7.64,9.55,,47.59359,-54.27349
2018-05-21 06:30:00+00:00,290.0,291.0,7.24,8.25,,47.59359,-54.27349
2018-05-21 06:40:00+00:00,290.0,294.0,6.79,7.91,,47.59359,-54.27349
2018-05-21 06:50:00+00:00,289.0,292.0,5.48,5.95,,47.59359,-54.27349
2018-05-21 07:00:00+00:00,284.0,287.0,5.11,6.18,,47.59359,-54.27349
2018-05-21 07:10:00+00:00,282.0,286.0,6.17,6.55,,47.59359,-54.27349
2018-05-21 07:20:00+00:00,280.0,280.0,5.24,6.34,,47.59359,-54.27349
2018-05-21 07:30:00+00:00,291.0,294.0,6.51,8.12,,47.59359,-54.27349
2018-05-21 07:40:00+00:00,278.0,280.0,5.88,6.65,,47.59359,-54.27349
2018-05-21 07:50:00+00:00,285.0,289.0,6.88,7.61,,47.59359,-54.27349
2018-05-21 08:00:00+00:00,297.0,300.0,6.11,6.71,,47.59359,-54.27349
2018-05-21 08:10:00+00:00,285.0,285.0,7.8,9.51,,47.59359,-54.27349
2018-05-21 08:20:00+00:00,284.0,298.0,6.95,7.98,,47.59359,-54.27349
2018-05-21 08:30:00+00:00,285.0,290.0,6.21,7.27,,47.59359,-54.27349
2018-05-21 08:40:00+00:00,274.0,270.0,5.71,6.25,,47.59359,-54.27349
2018-05-21 08:50:00+00:00,277.0,279.0,5.28,5.83,,47.59359,-54.27349
2018-05-21 09:00:00+00:00,280.0,282.0,5.1,6.09,,47.59359,-54.27349
2018-05-21 09:10:00+00:00,282.0,283.0,5.4,5.95,,47.59359,-54.27349
2018-05-21 09:20:00+00:00,277.0,276.0,4.98,5.96,,47.59359,-54.27349
2018-05-21 09:30:00+00:00,284.0,282.0,5.03,5.48,,47.59359,-54.27349
2018-05-21 09:40:00+00:00,296.0,295.0,5.31,5.81,,47.59359,-54.27349
2018-05-21 09:50:00+00:00,284.0,285.0,4.75,5.08,,47.59359,-54.27349
2018-05-21 10:00:00+00:00,283.0,284.0,5.47,5.93,,47.59359,-54.27349
2018-05-21 10:10:00+00:00,277.0,280.0,3.71,4.56,,47.59359,-54.27349
2018-05-21 10:20:00+00:00,289.0,286.0,4.67,5.47,,47.59359,-54.27349
2018-05-21 10:30:00+00:00,299.0,304.0,5.93,7.39,,47.59359,-54.27349
2018-05-21 10:40:00+00:00,312.0,308.0,5.37,6.19,,47.59359,-54.27349
2018-05-21 10:50:00+00:00,298.0,305.0,5.36,6.69,,47.59359,-54.27349
2018-05-21 11:00:00+00:00,310.0,309.0,6.41,7.25,,47.59359,-54.27349
2018-05-21 11:10:00+00:00,335.0,333.0,7.22,8.15,,47.59359,-54.27349
2018-05-21 11:20:00+00:00,324.0,328.0,6.28,7.14,,47.59359,-54.27349
2018-05-21 11:30:00+00:00,320.0,321.0,6.08,6.9,,47.59359,-54.27349
2018-05-21 11:40:00+00:00,315.0,312.0,6.61,8.65,,47.59359,-54.27349
2018-05-21 11:50:00+00:00,327.0,325.0,5.8,6.89,,47.59359,-54.27349
2018-05-21 12:00:00+00:00,315.0,316.0,5.59,6.64,,47.59359,-54.27349
2018-05-21 12:10:00+00:00,314.0,321.0,5.09,6.13,,47.59359,-54.27349
2018-05-21 12:20:00+00:00,315.0,315.0,8.16,9.31,,47.59359,-54.27349
2018-05-21 12:30:00+00:00,318.0,318.0,8.73,10.16,,47.59359,-54.27349
2018-05-21 12:40:00+00:00,329.0,332.0,8.28,9.69,,47.59359,-54.27349
2018-05-21 12:50:00+00:00,338.0,330.0,6.15,6.98,,47.59359,-54.27349
2018-05-21 13:00:00+00:00,321.0,324.0,6.96,7.94,,47.59359,-54.27349
2018-05-21 13:10:00+00:00,334.0,331.0,5.47,7.49,,47.59359,-54.27349
2018-05-21 13:20:00+00:00,312.0,314.0,6.06,7.3,,47.59359,-54.27349
2018-05-21 13:30:00+00:00,343.0,346.0,5.69,7.23,,47.59359,-54.27349
2018-05-21 13:40:00+00:00,321.0,322.0,4.53,5.11,,47.59359,-54.27349
2018-05-21 13:50:00+00:00,306.0,307.0,6.74,7.76,,47.59359,-54.27349
2018-05-21 14:00:00+00:00,326.0,322.0,3.96,5.61,,47.59359,-54.27349
2018-05-21 14:10:00+00:00,319.0,321.0,4.47,5.6,,47.59359,-54.27349
2018-05-21 14:20:00+00:00,338.0,334.0,4.2,5.87,,47.59359,-54.27349
2018-05-21 14:30:00+00:00,326.0,325.0,5.53,6.05,,47.59359,-54.27349
2018-05-21 14:40:00+00:00,340.0,330.0,7.48,8.11,,47.59359,-54.27349
2018-05-21 14:50:00+00:00,336.0,342.0,8.13,10.01,,47.59359,-54.27349
2018-05-21 15:00:00+00:00,315.0,321.0,7.02,8.09,,47.59359,-54.27349
2018-05-21 15:10:00+00:00,339.0,340.0,10.88,11.68,,47.59359,-54.27349
2018-05-21 15:20:00+00:00,340.0,338.0,8.76,10.38,,47.59359,-54.27349
2018-05-21 15:30:00+00:00,340.0,335.0,9.06,9.98,,47.59359,-54.27349
2018-05-21 15:40:00+00:00,325.0,328.0,7.4,8.4,,47.59359,-54.27349
2018-05-21 15:50:00+00:00,295.0,299.0,4.92,5.84,,47.59359,-54.27349
2018-05-21 16:00:00+00:00,320.0,322.0,5.14,5.87,,47.59359,-54.27349
2018-05-21 16:10:00+00:00,330.0,330.0,5.76,6.8,,47.59359,-54.27349
2018-05-21 16:20:00+00:00,328.0,334.0,8.75,9.82,,47.59359,-54.27349
2018-05-21 16:30:00+00:00,333.0,338.0,8.91,10.02,,47.59359,-54.27349
2018-05-21 16:40:00+00:00,326.0,321.0,8.17,9.42,,47.59359,-54.27349
2018-05-21 16:50:00+00:00,325.0,328.0,8.13,9.33,,47.59359,-54.27349
2018-05-21 17:00:00+00:00,305.0,305.0,5.5,6.5,,47.59359,-54.27349
2018-05-21 17:10:00+00:00,340.0,345.0,7.67,8.66,,47.59359,-54.27349
2018-05-21 17:20:00+00:00,320.0,318.0,5.94,6.93,,47.59359,-54.27349
2018-05-21 17:30:00+00:00,303.0,309.0,6.52,7.13,,47.59359,-54.27349
2018-05-21 17:40:00+00:00,305.0,308.0,5.51,6.4,,47.59359,-54.27349
2018-05-21 17:50:00+00:00,296.0,301.0,5.71,6.37,,47.59359,-54.27349
2018-05-21 18:00:00+00:00,306.0,304.0,4.84,5.79,,47.59359,-54.27349
2018-05-21 18:10:00+00:00,294.0,297.0,6.76,7.25,,47.59359,-54.27349
2018-05-21 18:20:00+00:00,313.0,308.0,5.42,6.51,,47.59359,-54.27349
2018-05-21 18:30:00+00:00,301.0,297.0,5.32,6.08,,47.59359,-54.27349
2018-05-21 18:40:00+00:00,291.0,291.0,5.65,6.46,,47.59359,-54.27349
2018-05-21 18:50:00+00:00,299.0,304.0,5.66,6.5,,47.59359,-54.27349
2018-05-21 19:00:00+00:00,277.0,279.0,4.28,4.91,,47.59359,-54.27349
2018-05-21 19:10:00+00:00,215.0,216.0,5.56,5.93,,47.59359,-54.27349
2018-05-21 19:20:00+00:00,244.0,237.0,6.42,7.89,,47.59359,-54.27349
2018-05-21 19:30:00+00:00,236.0,239.0,7.82,9.28,,47.59359,-54.27349
2018-05-21 19:40:00+00:00,242.0,241.0,9.39,12.1,,47.59359,-54.27349
2018-05-21 19:50:00+00:00,240.0,239.0,10.36,12.3,,47.59359,-54.27349
2018-05-21 20:00:00+00:00,245.0,244.0,10.9,12.89,,47.59359,-54.27349
2018-05-21 20:10:00+00:00,241.0,238.0,10.68,12.27,,47.59359,-54.27349
2018-05-21 20:20:00+00:00,263.0,264.0,7.41,8.34,,47.59359,-54.27349
2018-05-21 20:30:00+00:00,261.0,260.0,10.51,11.85,,47.59359,-54.27349
2018-05-21 20:40:00+00:00,259.0,265.0,9.5,10.44,,47.59359,-54.27349
2018-05-21 20:50:00+00:00,263.0,260.0,9.08,10.05,,47.59359,-54.27349
2018-05-21 21:00:00+00:00,266.0,269.0,10.2,12.3,,47.59359,-54.27349
2018-05-21 21:10:00+00:00,271.0,275.0,9.57,10.48,,47.59359,-54.27349
2018-05-21 21:20:00+00:00,273.0,275.0,10.76,12.63,,47.59359,-54.27349
2018-05-21 21:30:00+00:00,275.0,274.0,11.88,13.21,,47.59359,-54.27349
2018-05-21 21:40:00+00:00,278.0,282.0,10.94,13.79,,47.59359,-54.27349
2018-05-21 21:50:00+00:00,280.0,290.0,11.13,13.03,,47.59359,-54.27349
2018-05-21 22:00:00+00:00,282.0,286.0,11.84,13.65,,47.59359,-54.27349
2018-05-21 22:10:00+00:00,277.0,281.0,9.68,12.16,,47.59359,-54.27349
2018-05-21 22:20:00+00:00,274.0,280.0,8.44,9.41,,47.59359,-54.27349
2018-05-21 22:30:00+00:00,270.0,270.0,7.13,7.94,,47.59359,-54.27349
2018-05-21 22:40:00+00:00,272.0,269.0,8.12,9.02,,47.59359,-54.27349
2018-05-21 22:50:00+00:00,258.0,259.0,8.2,9.37,,47.59359,-54.27349
2018-05-21 23:00:00+00:00,258.0,261.0,8.03,9.81,,47.59359,-54.27349
2018-05-21 23:10:00+00:00,265.0,265.0,6.6,7.33,,47.59359,-54.27349
2018-05-21 23:20:00+00:00,260.0,258.0,7.19,7.85,,47.59359,-54.27349
2018-05-21 23:30:00+00:00,246.0,253.0,7.51,8.45,,47.59359,-54.27349
2018-05-21 23:40:00+00:00,254.0,251.0,6.12,6.84,,47.59359,-54.27349
2018-05-21 23:50:00+00:00,246.0,246.0,5.56,6.54,,47.59359,-54.27349
